Regional Weather Roundup
Issued by NWS

Home | Current Version | Previous Version | Graphics & Text | Print | Product List | Glossary On
Versions: 1 2 3 4 5 6 7 8 9 10 11 12 13 14 15 16 17 18 19 20 21 22 23 24 25 26 27 28 29 30 31 32 33 34 35 36 37 38 39 40 41 42 43 44 45 46 47 48 49 50
000
ASUS43 KDTX 232201
RWRMI
MICHIGAN HOURLY REGIONAL WEATHER ROUNDUP
NATIONAL WEATHER SERVICE DETROIT/PONTIAC MI
600 PM EDT MON MAY 23 2016

NOTE: "FAIR" INDICATES FEW OR NO CLOUDS BELOW 12,000 FEET WITH NO
SIGNIFICANT WEATHER AND/OR OBSTRUCTION TO VISIBILITY.

MIZ047>049-052>055-059>063-066>070-074>076-081>083-232300-
SOUTHEAST LOWER MICHIGAN

CITY           SKY/WX    TMP DP  RH WIND       PRES   REMARKS
ADRIAN         SUNNY     76  36  23 NW8       30.00F
ALMA           SUNNY     77  39  25 S12       29.96F
ANN ARBOR      SUNNY     76  35  22 SW5       29.99F HAZE
BAD AXE        SUNNY     75  31  20 CALM      29.98F
CARO           SUNNY     78  36  22 W3        29.96F
DETROIT CITY   SUNNY     76  42  29 S9        29.98F
DETROIT        SUNNY     75  45  34 SE7       29.99F
FLINT          SUNNY     80  26  13 CALM      29.98F
GROSSE ILE     SUNNY     70  43  37 SE8       29.99F
HILLSDALE      SUNNY     74   9   8 CALM      30.00F
HOWELL         SUNNY     77  32  19 W6        29.99F

CITY           SKY/WX    TMP DP  RH WIND       PRES   REMARKS
JACKSON        SUNNY     76  34  21 CALM      29.99F
LAMBERTVILLE   SUNNY     76  45  32 SE8       30.00F
LANSING        SUNNY     77  37  23 SW6       29.98F
LAPEER         FAIR      77  24  14 SW3       29.98F
MASON          SUNNY     76  33  20 S5        29.99S
MT. CLEMENS    SUNNY     74  47  39 SE7       29.97F
PONTIAC        SUNNY     76  24  14 VRB7      29.98F
PORT HOPE        N/A     60  50  69 SE10      29.97F
PORT HURON     SUNNY     75  45  33 S5        29.98F
TRI CITIES     SUNNY     80  36  20 CALM      29.97F
MIDLAND        FAIR      79  39  24 S6        29.94F
TROY           SUNNY     78  37  22 SW7       29.99F
SAGINAW HB     SUNNY     79  34  19 SW6       29.96F
$$
MIZ043>046-050>051-056>058-064>065-071>073-077>080-232300-
SOUTHWEST LOWER MICHIGAN

CITY           SKY/WX    TMP DP  RH WIND       PRES   REMARKS
BATTLE CREEK   SUNNY     77  35  21 SE8       29.98F
BENTON HARBOR  SUNNY     76  42  29 CALM      29.96F
BIG RAPIDS     SUNNY     78  40  25 SW8       29.94F
COLDWATER      SUNNY     75  32  20 S6        29.99F
FREMONT        FAIR      78  38  23 SW10      29.95F
HOLLAND        SUNNY     76  43  30 W8        29.97F
GRAND RAPIDS   MOSUNNY   81  40  23 S7        29.96F
IONIA          FAIR      78  33  19 S9        29.95F
KALAMAZOO      SUNNY     78  33  19 VRB3      29.98F
LUDINGTON      SUNNY     72  37  28 SW12      29.95F
MARSHALL       SUNNY     77  33  20 S3        29.97F
MOUNT PLEASANT SUNNY     79  42  27 S8        29.95F
MUSKEGON       SUNNY     75  40  28 W9        29.97F
SOUTH HAVEN    SUNNY     75  39  27 W5        29.97S
$$
MIZ016>042-232300-
NORTHERN LOWER MICHIGAN

CITY           SKY/WX    TMP DP  RH WIND       PRES   REMARKS
ALPENA         SUNNY     71  43  36 E9        29.93F
BEAVER ISLAND  SUNNY     73  38  28 SW12G20   29.93S
BELLAIRE       SUNNY     78  41  27 NW3       29.92F
CADILLAC       SUNNY     80  38  22 S8        29.95S
CHARLEVOIX     SUNNY     71  42  34 W10       29.96F
FRANKFORT      SUNNY     70  36  28 SW9       29.94F
GAYLORD        SUNNY     82  34  17 S5        29.93F
GRAYLING       SUNNY     82  34  18 S8        29.95S
HARBOR SPRINGS SUNNY     69  42  37 SW7       29.93F
HOUGHTON LAKE  SUNNY     80  35  19 W7        29.95F
MANISTEE       SUNNY     75  34  22 SW12G18   29.95F
OSCODA         SUNNY     75  35  23 S16G25    29.95S
PELLSTON       SUNNY     77  40  26 W9        29.93F
ROGERS CITY    SUNNY     70  47  43 N3        29.93S
TRAVERSE CITY  SUNNY     80  37  21 W9        29.91F
$$
MIZ007>008-015-232300-
EASTERN UPPER MICHIGAN

CITY           SKY/WX    TMP DP  RH WIND       PRES   REMARKS
KINROSS          N/A     75  36  23 SW7       29.93S
MACKINAC ISLAN SUNNY     69  42  37 W8        29.93F
NEWBERRY       SUNNY     72  42  33 S17G23    29.91S
S. S. MARIE    SUNNY     77  36  22 S12       29.91F
MUNISING         N/A     78  45  30 S17G31    29.82F
$$
MIZ004>006-011>014-085-232300-
CENTRAL UPPER MICHIGAN

CITY           SKY/WX    TMP DP  RH WIND       PRES   REMARKS
MANISTIQUE     SUNNY     58  46  63 SW9       29.92S
ESCANABA       SUNNY     66  46  48 S12G20    29.87F
MENOMINEE      SUNNY     73  48  40 S13       29.87S
SAWYER-GWINN   SUNNY     81  48  32 S24G35    29.82F
$$
MIZ001>003-009>011-084-232300-
WESTERN UPPER MICHIGAN

CITY           SKY/WX    TMP DP  RH WIND       PRES   REMARKS
IRON MOUNTAIN  SUNNY     85  42  22 S20G28    29.81F
HOUGHTON       MOSUNNY   85  47  26 SW12      29.72R
COPPER HARBOR    N/A     86  42  21 W8        29.70F
IRONWOOD       CLOUDY   N/A N/A N/A SW12      29.71S
$$

ABBREVIATIONS USED IN REMARKS
   TC - TEMPERATURE IN CELSIUS
  WCI - WIND CHILL INDEX
   HX - HEAT INDEX
  VSB - VISIBILITY




USA.gov is the U.S. government's official web portal to all federal, state and local government web resources and services.